| time (UTC) | temp F | wind direction | speed knots | gust knots | rain 1hr in | rain 24hr in | rain mn in | humidity % | barometer mb |
| 20260507074557 | 45 | 340 | 0.0 | 0.0 | 0.00 | 1.58 | 0.05 | 91 | 1004.3 |
| 20260507073056 | 45 | 340 | 0.0 | 0.9 | 0.00 | 1.58 | 0.05 | 91 | 1004.2 |
| 20260507071609 | 45 | 340 | 0.0 | 1.7 | 0.00 | 1.58 | 0.05 | 90 | 1004.3 |
| 20260507070055 | 46 | 340 | 0.0 | 5.2 | 0.00 | 1.58 | 0.05 | 89 | 1003.9 |
| 20260507064551 | 46 | 332 | 2.6 | 6.1 | 0.00 | 1.58 | 0.05 | 90 | 1003.8 |
| 20260507063048 | 46 | 355 | 0.0 | 4.3 | 0.00 | 1.58 | 0.05 | 92 | 1004.0 |
| 20260507061546 | 46 | 331 | 0.0 | 2.6 | 0.00 | 1.58 | 0.05 | 92 | 1004.0 |
| 20260507060045 | 46 | 328 | 0.9 | 4.3 | 0.00 | 1.58 | 0.05 | 92 | 1003.7 |
| 20260507054542 | 47 | 132 | 0.9 | 3.5 | 0.01 | 1.58 | 0.05 | 94 | 1003.6 |
| 20260507053109 | 47 | 29 | 0.0 | 0.9 | 0.01 | 1.58 | 0.05 | 94 | 1003.7 |
| 20260507051544 | 47 | 29 | 0.0 | 0.9 | 0.02 | 1.58 | 0.05 | 94 | 1003.8 |
| 20260507050043 | 48 | 29 | 0.0 | 0.9 | 0.05 | 1.58 | 0.05 | 94 | 1003.9 |
| 20260507044539 | 48 | 29 | 0.0 | 2.6 | 0.06 | 1.57 | 0.04 | 93 | 1003.6 |
| 20260507043038 | 48 | 360 | 1.7 | 4.3 | 0.09 | 1.57 | 0.04 | 93 | 1003.8 |
| 20260507041537 | 48 | 337 | 1.7 | 6.1 | 0.14 | 1.56 | 0.03 | 94 | 1003.9 |
| 20260507040032 | 48 | 349 | 1.7 | 6.1 | 0.12 | 1.53 | 0.00 | 94 | 1004.0 |
| 20260507034536 | 49 | 343 | 0.9 | 4.3 | 0.12 | 1.51 | 1.51 | 94 | 1004.0 |
| 20260507033038 | 49 | 333 | 0.0 | 5.2 | 0.11 | 1.48 | 1.48 | 94 | 1003.7 |
| 20260507031525 | 50 | 351 | 0.9 | 2.6 | 0.07 | 1.42 | 1.42 | 94 | 1003.7 |
| 20260507030027 | 50 | 268 | 0.0 | 2.6 | 0.07 | 1.41 | 1.41 | 94 | 1003.3 |
| 20260507024521 | 51 | 342 | 0.0 | 3.5 | 0.05 | 1.40 | 1.39 | 94 | 1003.0 |
| 20260507023026 | 52 | 292 | 0.0 | 1.7 | 0.03 | 1.38 | 1.37 | 94 | 1003.4 |
| 20260507021518 | 52 | 292 | 0.0 | 0.0 | 0.02 | 1.36 | 1.35 | 94 | 1003.0 |
| 20260507020021 | 52 | 292 | 0.0 | 0.9 | 0.05 | 1.35 | 1.34 | 94 | 1002.9 |
| 20260507014517 | 53 | 290 | 0.0 | 0.9 | 0.16 | 1.35 | 1.34 | 94 | 1002.9 |
| 20260507013014 | 53 | 259 | 0.0 | 2.6 | 0.28 | 1.35 | 1.34 | 94 | 1003.1 |
| 20260507011511 | 54 | 118 | 0.0 | 3.5 | 0.38 | 1.34 | 1.33 | 95 | 1003.1 |
| 20260507010021 | 55 | 317 | 0.0 | 1.7 | 0.34 | 1.29 | 1.28 | 95 | 1003.3 |
| 20260507004511 | 55 | 355 | 1.7 | 6.1 | 0.22 | 1.28 | 1.15 | 95 | 1003.4 |
| 20260507003011 | 56 | 157 | 0.0 | 0.0 | 0.10 | 1.15 | 1.04 | 95 | 1002.9 |
| 20260507001509 | 56 | 157 | 0.0 | 2.6 | 0.00 | 1.06 | 0.94 | 95 | 1002.8 |
| 20260507000012 | 56 | 188 | 0.0 | 4.3 | 0.00 | 1.06 | 0.94 | 95 | 1002.8 |
| 20260506234509 | 56 | 156 | 0.9 | 4.3 | 0.01 | 1.06 | 0.94 | 95 | 1002.7 |
| 20260506233008 | 56 | 136 | 1.7 | 4.3 | 0.01 | 1.06 | 0.94 | 95 | 1002.9 |
| 20260506231506 | 56 | 128 | 0.9 | 3.5 | 0.04 | 1.06 | 0.94 | 95 | 1002.9 |
| 20260506230005 | 56 | 128 | 0.0 | 1.7 | 0.05 | 1.06 | 0.94 | 95 | 1003.0 |
| 20260506224504 | 56 | 128 | 0.0 | 0.9 | 0.05 | 1.05 | 0.93 | 95 | 1003.2 |
| 20260506223003 | 57 | 128 | 0.0 | 2.6 | 0.06 | 1.05 | 0.93 | 95 | 1003.3 |
| 20260506221505 | 57 | 111 | 0.0 | 2.6 | 0.06 | 1.02 | 0.90 | 95 | 1003.5 |
| 20260506220002 | 57 | 208 | 0.0 | 0.0 | 0.06 | 1.01 | 0.89 | 95 | 1003.7 |
| 20260506214501 | 57 | 208 | 0.0 | 0.0 | 0.05 | 1.00 | 0.88 | 95 | 1003.8 |
| 20260506213001 | 56 | 208 | 0.0 | 0.0 | 0.04 | 0.99 | 0.87 | 94 | 1003.8 |
| 20260506211607 | 56 | 208 | 0.0 | 0.0 | 0.02 | 0.97 | 0.85 | 94 | 1003.9 |
| 20260506210059 | 57 | 208 | 0.0 | 4.3 | 0.02 | 0.95 | 0.83 | 94 | 1003.6 |
| 20260506204600 | 57 | 126 | 0.9 | 4.3 | 0.04 | 0.95 | 0.83 | 94 | 1003.4 |
| 20260506203057 | 57 | 127 | 1.7 | 4.3 | 0.13 | 0.95 | 0.83 | 94 | 1003.7 |
| 20260506201555 | 57 | 114 | 1.7 | 4.3 | 0.27 | 0.95 | 0.83 | 94 | 1003.8 |
| 20260506194557 | 57 | 138 | 0.9 | 3.5 | 0.55 | 0.91 | 0.79 | 94 | 1004.3 |
| 20260506193054 | 57 | 228 | 0.9 | 1.7 | 0.59 | 0.82 | 0.70 | 93 | 1004.6 |
| 20260506191604 | 57 | 228 | 0.0 | 3.5 | 0.46 | 0.68 | 0.56 | 93 | 1004.7 |
| 20260506190049 | 57 | 176 | 0.0 | 1.7 | 0.34 | 0.55 | 0.43 | 93 | 1004.7 |
| 20260506184551 | 57 | 176 | 0.0 | 2.6 | 0.16 | 0.36 | 0.24 | 93 | 1004.7 |
| 20260506183052 | 57 | 176 | 0.0 | 0.0 | 0.04 | 0.23 | 0.11 | 92 | 1004.8 |
| 20260506181555 | 57 | 176 | 0.0 | 0.0 | 0.03 | 0.22 | 0.10 | 92 | 1004.9 |
| 20260506180104 | 57 | 176 | 0.0 | 0.0 | 0.04 | 0.21 | 0.09 | 92 | 1005.1 |
| 20260506174543 | 57 | 176 | 0.0 | 2.6 | 0.03 | 0.20 | 0.08 | 91 | 1005.3 |
| 20260506173052 | 57 | 169 | 0.0 | 0.0 | 0.04 | 0.19 | 0.07 | 91 | 1005.5 |
| 20260506171542 | 57 | 169 | 0.0 | 2.6 | 0.05 | 0.19 | 0.07 | 91 | 1005.6 |
| 20260506170039 | 58 | 169 | 0.0 | 0.0 | 0.04 | 0.17 | 0.05 | 91 | 1005.6 |
| 20260506164538 | 57 | 169 | 0.0 | 0.0 | 0.04 | 0.17 | 0.05 | 90 | 1006.2 |
| 20260506163039 | 57 | 169 | 0.0 | 1.7 | 0.02 | 0.15 | 0.03 | 89 | 1006.7 |
| 20260506161537 | 58 | 169 | 0.0 | 0.9 | 0.01 | 0.14 | 0.02 | 89 | 1007.1 |
| 20260506160037 | 58 | 169 | 0.0 | 0.0 | 0.00 | 0.13 | 0.01 | 88 | 1007.2 |
| 20260506154536 | 57 | 169 | 0.0 | 3.5 | 0.00 | 0.13 | 0.01 | 87 | 1007.1 |
| 20260506153035 | 57 | 104 | 0.9 | 4.3 | 0.00 | 0.13 | 0.01 | 87 | 1007.0 |
| 20260506151534 | 57 | 131 | 0.0 | 5.2 | 0.00 | 0.13 | 0.01 | 89 | 1006.9 |
| 20260506150033 | 57 | 130 | 0.0 | 3.5 | 0.00 | 0.13 | 0.01 | 89 | 1006.9 |
| 20260506144544 | 57 | 130 | 0.9 | 4.3 | 0.00 | 0.13 | 0.01 | 89 | 1007.1 |
| 20260506143032 | 57 | 133 | 0.9 | 2.6 | 0.00 | 0.13 | 0.01 | 92 | 1007.1 |
| 20260506141535 | 57 | 133 | 0.0 | 2.6 | 0.00 | 0.13 | 0.01 | 93 | 1007.2 |
| 20260506140031 | 56 | 133 | 0.0 | 1.7 | 0.00 | 0.13 | 0.01 | 94 | 1007.3 |
| 20260506134530 | 56 | 133 | 0.0 | 0.9 | 0.00 | 0.13 | 0.01 | 95 | 1007.3 |
| 20260506133030 | 56 | 133 | 0.0 | 0.0 | 0.00 | 0.13 | 0.01 | 95 | 1007.5 |
| 20260506131529 | 55 | 133 | 0.0 | 0.0 | 0.00 | 0.13 | 0.01 | 95 | 1007.9 |
| 20260506130031 | 55 | 133 | 0.0 | 0.0 | 0.00 | 0.13 | 0.01 | 95 | 1008.2 |
| 20260506124528 | 55 | 133 | 0.0 | 0.0 | 0.00 | 0.13 | 0.01 | 95 | 1008.2 |
| 20260506123028 | 55 | 133 | 0.0 | 0.0 | 0.00 | 0.13 | 0.01 | 95 | 1008.1 |
| 20260506121529 | 55 | 133 | 0.0 | 0.0 | 0.00 | 0.13 | 0.01 | 95 | 1008.2 |
| 20260506120030 | 55 | 133 | 0.0 | 1.7 | 0.00 | 0.13 | 0.01 | 96 | 1008.2 |
| 20260506114527 | 55 | 133 | 0.9 | 1.7 | 0.00 | 0.13 | 0.01 | 96 | 1008.1 |
| 20260506113027 | 54 | 133 | 0.0 | 0.0 | 0.00 | 0.13 | 0.01 | 96 | 1008.2 |
| 20260506111525 | 54 | 133 | 0.0 | 3.5 | 0.00 | 0.13 | 0.01 | 95 | 1008.2 |
| 20260506110025 | 54 | 133 | 0.0 | 2.6 | 0.00 | 0.13 | 0.01 | 95 | 1008.3 |
| 20260506104527 | 54 | 133 | 0.0 | 0.0 | 0.00 | 0.13 | 0.01 | 95 | 1008.4 |
| 20260506103025 | 54 | 133 | 0.0 | 0.0 | 0.00 | 0.13 | 0.01 | 95 | 1008.5 |
| 20260506101523 | 54 | 133 | 0.0 | 0.0 | 0.00 | 0.13 | 0.01 | 95 | 1008.1 |
| 20260506100020 | 54 | 133 | 0.0 | 0.0 | 0.00 | 0.13 | 0.01 | 95 | 1008.0 |
| 20260506094519 | 54 | 133 | 0.0 | 0.0 | 0.00 | 0.13 | 0.01 | 95 | 1008.2 |
| 20260506093018 | 55 | 133 | 0.0 | 0.9 | 0.01 | 0.13 | 0.01 | 95 | 1007.9 |
| 20260506091518 | 55 | 133 | 0.0 | 0.0 | 0.01 | 0.13 | 0.01 | 95 | 1007.9 |
| 20260506090022 | 55 | 133 | 0.0 | 0.0 | 0.01 | 0.13 | 0.01 | 95 | 1007.7 |
| 20260506084531 | 55 | 133 | 0.0 | 0.0 | 0.01 | 0.13 | 0.01 | 95 | 1007.5 |
| 20260506083013 | 55 | 133 | 0.0 | 0.0 | 0.00 | 0.12 | 0.00 | 95 | 1007.8 |
| 20260506081516 | 56 | 133 | 0.0 | 0.0 | 0.00 | 0.12 | 0.00 | 95 | 1008.1 |